Overview Statistics Trail Chart Weather Telemetry Raw packets
 

This is the latest recevied weather packets stored in our database for station/object IONIA-WX. If no packets are shown the sender has not sent any weather packets the latest 10 day(s).

<< 27 28 29 30 31 32 33 >>
Time Temp. Humidity Pressure Rain* Wind** Luminosity Snow
1787946318 23.89° C 47% 990.6 hPa 0 mm - - -
1787945419 23.89° C 47% 990.6 hPa 0 mm - - -
1787944520 23.89° C 47% 990.6 hPa 0 mm - - -
1787943619 23.89° C 47% 990.6 hPa 0 mm - - -
1787942720 23.89° C 43% 991.5 hPa 0 mm - - -
1787941818 23.89° C 43% 991.5 hPa 0 mm - - -
1787940919 23.89° C 43% 991.5 hPa 0 mm - - -
1787940019 23.33° C 43% 991.5 hPa 0 mm - - -
1787939117 23.33° C 51% 991.6 hPa 0 mm - - -
1787938217 23.33° C 49% 991 hPa 0 mm - - -
1787937317 22.78° C 49% 991 hPa 0 mm - - -
1787936421 22.78° C 49% 991 hPa 0 mm - - -
1787935517 22.22° C 56% 991.4 hPa 0 mm - - -
1787934620 21.67° C 55% 991.5 hPa 0 mm - - -
1787933717 21.67° C 55% 991.5 hPa 0 mm - - -
1787932822 21.11° C 55% 991.5 hPa 0 mm - - -
1787931919 20.56° C 69% 991 hPa 0 mm - - -
1787931022 20° C 59% 991.9 hPa 0 mm - - -
1787930117 20° C 59% 991.9 hPa 0 mm - - -
1787929219 19.44° C 59% 991.9 hPa 0 mm - - -
1787928318 18.89° C 77% 990.9 hPa 0 mm - - -
1787927418 17.78° C 66% 991.2 hPa 0 mm - - -
1787926517 17.78° C 66% 991.2 hPa 0 mm - - -
1787925618 16.67° C 69% 991.2 hPa 0 mm - - -
1787924717 16.11° C 79% 991.4 hPa 0 mm - - -

* Rain latest hour (hover to see other rain measurements)
** Current wind speed in m/s (hover to see current wind gust speed)